[[[{"header":{"parameterUnit":"kt","parameterCategory":2,"dx":1,"dy":1,"la1":30.253999710083008,"la2":30.299108505249023,"lo1":-89.0895004272461,"lo2":-89.04439544677734,"nx":28,"ny":28,"refTime":"2022-10-04T21:00:00:Z","depth":0,"parameterNumber":1,"parameterNumberName":"U-component_of_WINDS"},"data":[-7.4854,-7.5001,-7.4953,-7.5099,-7.508,-7.5172,-7.519,-7.5208,-7.5209,-7.5315,-7.5368,-7.5334,-7.5317,-7.5369,-7.5424,-7.5407,-7.5435,-7.5525,-7.5491,-7.5129,-7.5076,-7.5025,-7.4986,-7.5532,-7.5533,-7.5871,-7.5874,-7.5877,-7.4603,-7.4586,-7.4648,-7.4674,-7.4728,-7.4612,-7.4624,-7.4677,-7.4763,-7.4765,-7.4812,-7.4901,-7.4965,-7.4914,-7.4968,-7.5038,-7.4986,-7.5056,-7.505,-7.5049,-7.4662,-7.4621,-7.5098,-7.5098,-7.5098,-7.5098,-7.5098,-7.5098,-7.4133,-7.4223,-7.4208,-7.4273,-7.4273,-7.4291,-7.4369,-7.4322,-7.4382,-7.4429,-7.4356,-7.4452,-7.4444,-7.4481,-7.4481,-7.4555,-7.4467,-7.4528,-7.4543,-7.456,-7.4588,-7.4111,-7.4561,-7.456,-7.4558,-7.4557,-7.4556,0,-7.3772,-7.3724,-7.3777,-7.3818,-7.3862,-7.3888,-7.3903,-7.3949,-7.3826,-7.3881,-7.3956,-7.399,-7.406,-7.4125,-7.4162,-7.4146,-7.403,-7.4012,-7.4053,-7.409,-7.4121,-7.4109,-7.3481,-7.3998,-7.3993,-7.3989,-7.3987,-7.3985,-7.3295,-7.3404,-7.336,-7.3406,-7.3399,-7.3473,-7.3506,-7.3388,-7.343,-7.343,-7.3516,-7.3578,-7.3621,-7.3751,-7.3693,-7.3744,-7.3687,-7.3891,-7.3694,-7.3727,-7.3692,-7.3687,-7.3698,-7.3931,-7.3938,-7.3944,-7.3948,0,-7.3032,-7.2943,-7.3094,-7.3038,-7.3028,-7.3149,-7.3101,-7.3185,-7.3128,-7.3236,-7.3254,-7.3164,-7.324,-7.3146,-7.3213,-7.3162,-7.3367,-7.3309,-7.337,-7.3354,-7.3528,-7.3514,-7.4105,-7.4177,-7.3609,-7.3614,-7.3619,0,-7.2589,-7.2736,-7.2595,-7.2687,-7.2847,-7.2721,-7.2883,-7.2848,-7.2834,-7.2918,-7.2767,-7.285,-7.2716,-7.2786,-7.2711,-7.286,-7.2872,-7.2842,-7.2821,-7.2856,-7.286,-7.2875,-7.2849,-7.2764,-7.2761,-7.2759,-7.2757,0,-7.2186,-7.2279,-7.2428,-7.2434,-7.2386,-7.246,-7.2444,-7.2424,-7.2457,-7.2485,-7.2505,-7.2547,-7.2571,-7.2607,-7.251,-7.238,-7.2689,-7.249,-7.2659,-7.2662,-7.273,-7.2727,-7.3275,-7.2753,-7.2752,-7.2751,-7.275,0,-7.1812,-7.1839,-7.2067,-7.2023,-7.2052,-7.215,-7.218,-7.2241,-7.2232,-7.2189,-7.2209,-7.2096,-7.2215,-7.2026,-7.219,-7.2049,-7.2082,-7.2063,-7.2073,-7.2077,-7.1866,-7.2189,-7.272,-7.2772,-7.2085,-7.2079,-7.2074,0,-7.1377,-7.1579,-7.1469,-7.1687,-7.1767,-7.159,-7.1696,-7.169,-7.1641,-7.1703,-7.1648,-7.172,-7.1557,-7.1566,-7.166,-7.1607,-7.1791,-7.1579,-7.1675,-7.168,-7.1684,-7.2171,-7.2273,-7.2614,-7.2001,-7.2009,-7.2014,0,-7.1025,-7.0959,-7.1006,-7.1007,-7.0975,-7.1039,-7.1162,-7.1202,-7.1249,-7.1257,-7.1357,-7.1454,-7.1336,-7.1351,-7.1261,-7.1364,-7.1663,-7.1222,-7.122,-7.1307,-7.1955,-7.2053,-7.2111,-7.1581,-7.1589,-7.1596,-7.1957,0,-7.0485,-7.0571,-7.0691,-7.0696,-7.073,-7.0859,-7.0751,-7.0801,-7.071,-7.0653,-7.0797,-7.0763,-7.0804,-7.0842,-7.0753,-7.1018,-7.0958,-7.083,-7.0636,-7.0956,-7.1073,-7.112,-7.0472,-7.0466,-7.046,-7.0456,0,0,-7.0091,-7.021,-7.008,-7.019,-7.021,-7.0019,-7.0167,-7.0165,-7.0164,-7.0184,-7.0075,-7.0206,-7.0183,-7.0369,-7.046,-7.0476,-7.0514,-7.0404,-7.0804,-7.0844,-7.088,-7.1006,-7.1057,-7.0447,-7.0444,-7.0443,-7.0441,0,-6.9869,-6.9845,-6.999,-6.9981,-6.9962,-6.9891,-6.9928,-6.9874,-6.9843,-6.998,-6.9821,-6.9893,-6.9999,-6.9996,-7.0009,-7.038,-7.0255,-7.0401,-7.0637,-7.0754,-7.0801,-7.0841,-7.0976,-7.1025,-7.0428,-7.0429,-7.0429,0,-6.9504,-6.9463,-6.952,-6.9552,-6.9537,-6.9622,-6.9392,-6.949,-6.9552,-6.9336,-6.9474,-6.9441,-6.9427,-6.9615,-6.9694,-6.9597,-7.0027,-6.987,-6.99,-6.9907,-7.0015,-7.0071,-7.0121,-6.9465,-6.9462,-6.9459,0,0,-6.9327,-6.9404,-6.9319,-6.9496,-6.9498,-6.9393,-6.9426,-6.9336,-6.9324,-6.9321,-6.9273,-6.927,-6.9329,-6.9372,-6.9421,-6.9643,-6.963,-6.9755,-6.9801,-6.9838,-6.9866,-6.9984,-7.0039,-6.9448,-6.9448,-6.9447,0,0,-6.9242,-6.915,-6.9057,-6.9247,-6.9243,-6.9171,-6.9284,-6.9169,-6.9202,-6.9174,-6.9027,-6.9019,-6.9192,-6.9165,-6.9031,-6.9351,-6.9161,-6.919,-6.9361,-6.9417,-6.9462,-6.9464,-6.8789,0,0,0,0,0,-6.8956,-6.916,-6.9078,-6.9093,-6.9131,-6.9217,-6.9221,-6.9103,-6.8972,-6.9065,-6.9007,-6.8869,-6.9063,-6.894,-6.8959,-6.9109,-6.9306,-6.9331,-6.9355,-6.9627,-6.9687,-6.9737,0,0,0,0,0,0,-6.8961,-6.8979,-6.9072,-6.9011,-6.9018,-6.9208,-6.896,-6.8933,-6.8959,-6.893,-6.8885,-6.8867,-6.8769,-6.8923,-6.8941,-6.9086,-6.8782,-6.9316,-6.9337,-6.9357,-6.9647,-6.9696,-6.9738,0,0,0,0,0,-6.8964,-6.8979,-6.907,-6.9007,-6.9013,-6.8905,-6.8951,-6.8927,-6.8944,-6.8853,-6.8831,-6.8853,-6.8776,-6.8784,-6.8933,-6.9081,-6.8769,-6.8776,-6.933,-6.9347,-6.9362,-6.9671,0,0,0,0,0,0,-6.8966,-6.8958,-6.9068,-6.9066,-6.8918,-6.8892,-6.8883,-6.8922,-6.8862,-6.8844,-6.8813,-6.8792,-6.8784,-6.8788,-6.8795,-6.9086,-6.8758,-6.8765,-6.877,-6.9343,-6.9356,-6.9368,0,0,0,0,0,0,-6.8949,-6.8958,-6.9067,-6.8963,-6.8947,-6.8881,-6.8873,-6.8982,-6.8865,-6.8825,-6.8805,-6.8804,-6.8775,-6.8793,-6.8797,-6.8972,-6.8749,-6.8757,-6.8761,-6.8765,-6.9354,-6.9364,0,0,0,0,0,0,-6.895,-6.8957,-6.8962,-6.8951,-6.8936,-6.8901,-6.8974,-6.902,-6.8774,-6.8831,-6.8749,-6.8737,-6.8784,-6.8785,-6.88,-6.8974,-6.8972,-6.875,-6.8754,-6.8758,-6.876,0,0,0,0,0,0,0,-6.8951,-6.8931,-6.9083,-6.8941,-6.8928,-6.9044,-6.9043,-6.9043,-6.8772,-6.8761,-6.8751,-6.8742,-6.8709,-6.8717,-6.8725,-6.8975,0,0,-6.8749,-6.8752,0,0,0,0,0,0,0,0,-6.8926,-6.893,-6.9083,-6.9082,-6.9082,-6.9044,-6.9043,-6.9043,-6.877,-6.8762,-6.8753,-6.8746,-6.8711,-6.8717,-6.8724,0,0,0,0,0,0,0,0,0,0,0,0,0,0,0,-6.9083,-6.9082,0,-6.9044,-6.9043,-6.9043,-6.8769,-6.8762,-6.8755,-6.8749,-6.8713,-6.8718,-6.8723,0,0,0,0,0,0,0,0,0,0,0,0,0,0,0,0,0,0,0,0,0,0,0,0,0,0,0,0,0,0,0,0,0,0,0,0,0,0,0,0,0,0,0,0,0,0,0,0,0,0,0,0,0,0,0,0,0,0,0,0,0,0,0,0,0,0,0,0,0]}],[{"header":{"parameterUnit":"kt","parameterCategory":2,"dx":1,"dy":1,"la1":30.253999710083008,"la2":30.299108505249023,"lo1":-89.0895004272461,"lo2":-89.04439544677734,"nx":28,"ny":28,"refTime":"2022-10-04T21:00:00:Z","depth":0,"parameterNumber":2,"parameterNumberName":"V-component_of_WINDS"},"data":[3.6077,3.5996,3.5993,3.5898,3.5878,3.5811,3.5785,3.575,3.572,3.5636,3.5586,3.5569,3.5533,3.5467,3.5409,3.5401,3.5374,3.5352,3.5345,3.5458,3.5473,3.5487,3.5506,3.5348,3.5347,3.5227,3.5226,3.5225,3.6168,3.6149,3.6099,3.6045,3.6001,3.6023,3.598,3.5939,3.5876,3.5838,3.5788,3.571,3.5646,3.5615,3.555,3.5507,3.5509,3.549,3.5489,3.5482,3.5605,3.5626,3.549,3.549,3.549,3.549,3.549,3.549,3.6332,3.6283,3.6249,3.6193,3.6164,3.6128,3.6078,3.6061,3.6006,3.5942,3.5943,3.5868,3.5824,3.574,3.5708,3.5647,3.5664,3.5638,3.563,3.5622,3.5616,3.5788,3.5635,3.5635,3.5636,3.5636,3.5636,0,3.6449,3.645,3.6398,3.6347,3.6305,3.6262,3.6221,3.619,3.618,3.6135,3.6067,3.6026,3.5943,3.5874,3.581,3.578,3.5786,3.5787,3.5767,3.5763,3.5771,3.5762,3.596,3.5788,3.5789,3.579,3.5791,3.5791,3.661,3.6554,3.6513,3.6478,3.6454,3.6396,3.6359,3.6355,3.6315,3.626,3.6213,3.6147,3.6092,3.5979,3.5947,3.5882,3.5882,3.5819,3.5871,3.5874,3.5876,3.5877,3.587,3.5805,3.5803,3.5802,3.5801,0,3.6701,3.6692,3.6601,3.6564,3.6553,3.6492,3.6458,3.6406,3.6391,3.6316,3.6298,3.627,3.62,3.618,3.6092,3.6083,3.5975,3.5981,3.5993,3.5991,3.5928,3.5933,3.5735,3.5707,3.5877,3.5876,3.5874,0,3.6831,3.6755,3.6745,3.6692,3.6609,3.6605,3.6521,3.6498,3.646,3.6401,3.641,3.6353,3.6335,3.6274,3.626,3.6169,3.6153,3.6138,3.6133,3.6133,3.6135,3.6103,3.6108,3.613,3.6131,3.6132,3.6133,0,3.6969,3.6874,3.679,3.6766,3.6714,3.6673,3.6649,3.6605,3.6566,3.6512,3.6486,3.6422,3.6385,3.6334,3.6315,3.6352,3.6204,3.625,3.6187,3.6188,3.6149,3.615,3.5988,3.6134,3.6135,3.6135,3.6135,0,3.7069,3.7021,3.6901,3.6858,3.6832,3.6774,3.6714,3.666,3.6611,3.66,3.6556,3.6555,3.6476,3.6524,3.6413,3.6466,3.6428,3.6407,3.6403,3.6387,3.6439,3.6344,3.6197,3.6178,3.6384,3.6386,3.6388,0,3.723,3.7104,3.71,3.6983,3.6922,3.6937,3.6872,3.6829,3.6808,3.675,3.6725,3.6655,3.6686,3.666,3.661,3.6577,3.6508,3.6587,3.6492,3.6489,3.6502,3.6368,3.6348,3.6233,3.6414,3.6411,3.6409,0,3.735,3.729,3.7268,3.7239,3.7184,3.713,3.7057,3.6989,3.6951,3.69,3.6834,3.6737,3.6755,3.6711,3.6701,3.6649,3.6555,3.6673,3.6671,3.6649,3.6426,3.6409,3.6389,3.6559,3.6556,3.6553,3.643,0,3.7499,3.7434,3.7379,3.7312,3.7269,3.7193,3.7173,3.7129,3.7128,3.7105,3.7008,3.696,3.6883,3.6856,3.685,3.6738,3.6751,3.6769,3.6806,3.6721,3.6679,3.6662,3.6872,3.6873,3.6874,3.6874,0,0,3.7651,3.7556,3.755,3.7479,3.7441,3.7454,3.7375,3.7338,3.7261,3.7232,3.7256,3.7109,3.7066,3.6948,3.692,3.6889,3.6865,3.6893,3.6763,3.6751,3.6739,3.6695,3.6678,3.6876,3.6876,3.6876,3.6877,0,3.77,3.7668,3.7592,3.7556,3.7501,3.7482,3.7464,3.7408,3.7389,3.7294,3.7298,3.7236,3.7116,3.707,3.7031,3.6911,3.6912,3.689,3.6833,3.6772,3.6759,3.6747,3.6701,3.6685,3.6879,3.6878,3.6878,0,3.7812,3.7775,3.7737,3.7653,3.7615,3.7548,3.7588,3.7515,3.7464,3.747,3.7374,3.7342,3.7277,3.717,3.7121,3.7138,3.6957,3.7008,3.7002,3.6993,3.6932,3.6917,3.6903,3.7088,3.7089,3.709,0,0,3.7855,3.7795,3.7748,3.7661,3.7638,3.7606,3.7567,3.7559,3.7506,3.7483,3.7441,3.7385,3.7315,3.7267,3.72,3.7086,3.7068,3.7035,3.7026,3.7018,3.7005,3.6942,3.6926,3.7093,3.7093,3.7094,0,0,3.7873,3.7819,3.7827,3.7723,3.7676,3.7619,3.7564,3.757,3.7507,3.7512,3.7488,3.7472,3.7371,3.7336,3.7384,3.7211,3.725,3.7237,3.7236,3.7223,3.7213,3.722,3.7408,0,0,0,0,0,3.7911,3.7827,3.7835,3.7815,3.7703,3.7617,3.7602,3.7584,3.7614,3.7571,3.7537,3.7542,3.7358,3.74,3.7376,3.732,3.7135,3.7128,3.7121,3.7092,3.7079,3.7067,0,0,0,0,0,0,3.7902,3.7877,3.7837,3.7778,3.7753,3.7619,3.7666,3.7658,3.7618,3.7621,3.7549,3.7539,3.7518,3.741,3.7389,3.7337,3.7415,3.7132,3.7126,3.712,3.7087,3.7076,3.7067,0,0,0,0,0,3.7896,3.7876,3.7702,3.7779,3.7757,3.7714,3.7669,3.7663,3.763,3.7575,3.7566,3.7621,3.7517,3.7498,3.7398,3.7347,3.7429,3.7422,3.7128,3.7123,3.7119,3.7082,0,0,0,0,0,0,3.7891,3.7867,3.7697,3.769,3.7809,3.7721,3.7707,3.7667,3.7586,3.7577,3.7646,3.7649,3.7516,3.7501,3.7486,3.7352,3.7441,3.7433,3.7428,3.7125,3.7121,3.7117,0,0,0,0,0,0,3.7878,3.7861,3.7694,3.7733,3.7729,3.7728,3.7715,3.7625,3.7585,3.7662,3.7662,3.7648,3.7535,3.7503,3.7491,3.7351,3.745,3.7442,3.7437,3.7434,3.7121,3.7118,0,0,0,0,0,0,3.7871,3.7856,3.7734,3.7732,3.7729,3.7642,3.7647,3.7532,3.7626,3.7665,3.7633,3.7636,3.7536,3.7525,3.7494,3.7359,3.7353,3.745,3.7445,3.7441,3.7439,0,0,0,0,0,0,0,3.7864,3.7969,3.7743,3.7731,3.7729,3.762,3.7618,3.7616,3.7627,3.7629,3.7632,3.7635,3.7493,3.7485,3.7476,3.7366,0,0,3.7451,3.7447,0,0,0,0,0,0,0,0,3.7975,3.797,3.7743,3.7741,3.774,3.762,3.7618,3.7616,3.7627,3.7629,3.7632,3.7634,3.7491,3.7484,3.7477,0,0,0,0,0,0,0,0,0,0,0,0,0,0,0,3.7743,3.7742,0,3.762,3.7618,3.7617,3.7627,3.7629,3.7631,3.7633,3.7489,3.7483,3.7478,0,0,0,0,0,0,0,0,0,0,0,0,0,0,0,0,0,0,0,0,0,0,0,0,0,0,0,0,0,0,0,0,0,0,0,0,0,0,0,0,0,0,0,0,0,0,0,0,0,0,0,0,0,0,0,0,0,0,0,0,0,0,0,0,0,0,0,0,0]}]]]